Regional Weather Roundup
Issued by NWS Charleston, WV

Home | Current Version | Previous Version | Graphics & Text | Print | Product List | Glossary On
Versions: 1 2 3 4 5 6 7 8 9 10 11 12 13 14 15 16 17 18 19 20 21 22 23 24 25 26 27 28 29 30 31 32 33 34 35 36 37 38 39 40 41 42 43 44 45 46 47 48 49 50
000
ASUS41 KRLX 070010
RWRRLX
West Virginia Regional Weather Roundup
National Weather Service Charleston WV
700 PM EST SAT FEB 06 2016

Note: "fair" indicates few or no clouds below 12,000 feet with no
significant weather and/or obstructions to visibility.

WVZ003-070100-
Northern Panhandle of West Virginia

CITY           SKY/WX    TMP DP  RH WIND       PRES   REMARKS
WHEELING         N/A     37  10  32 W6        30.22R
$$

WVZ009-070100-
Northwest West Virginia

CITY           SKY/WX    TMP DP  RH WIND       PRES   REMARKS
PARKERSBURG      N/A     38  14  37 CALM      30.28R
$$

WVZ006-070100-
Western West Virginia

CITY           SKY/WX    TMP DP  RH WIND       PRES   REMARKS
HUNTINGTON     CLOUDY    46  22  38 N7        30.26R
$$

WVZ015-070100-
West Central West Virginia

CITY           SKY/WX    TMP DP  RH WIND       PRES   REMARKS
CHARLESTON     MOCLDY    44  19  36 CALM      30.25R
$$

WVZ022-031-070100-
North Central West Virginia

CITY           SKY/WX    TMP DP  RH WIND       PRES   REMARKS
CLARKSBURG       N/A     41  17  38 W5        30.23R
MORGANTOWN       N/A     41  13  31 CALM      30.23R
$$

WVZ025-035-042-045-070100-
Southern West Virginia

CITY           SKY/WX    TMP DP  RH WIND       PRES   REMARKS
BECKLEY          N/A     37  16  42 SW3       30.23R
LOGAN            N/A     43  19  39 W3        30.24R
BLUEFIELD        N/A     33  15  47 SW6       30.23R
LEWISBURG        N/A     37  19  47 S3        30.23R
$$

WVZ047-070100-
Northern Mountains of West Virginia

CITY           SKY/WX    TMP DP  RH WIND       PRES   REMARKS
ELKINS           N/A     31  16  54 CALM      30.22R
$$

WVZ052-070100-
Eastern Panhandle of West Virginia

CITY           SKY/WX    TMP DP  RH WIND       PRES   REMARKS
MARTINSBURG      N/A     36  18  48 S5        30.25S
PETERSBURG       N/A     34  25  71 CALM      30.24R
$$



USA.gov is the U.S. government's official web portal to all federal, state and local government web resources and services.